Location: Columbia
(38.9520°N, 92.3340°W)
Time: 20:41:23
(UTC-06:00)

FENGYUN 3A - Visible Passes

Search period start: 16 January 2017 00:00
Search period end: 26 January 2017 00:00
Orbit: 819 x 833 km, 98.4° (Epoch: 16 January)

Date Brightness Start Highest point End Pass type
(mag) Time Alt. Az. Time Alt. Az. Time Alt. Az.
16 Jan 3.7 18:57:23 10° SSE 19:02:33 53° ENE 19:07:46 10° N visible
16 Jan 6.1 20:39:29 10° SW 20:43:05 18° W 20:46:43 10° NW visible
17 Jan 4.1 18:38:57 10° SE 18:43:47 36° ENE 18:48:38 10° N visible
17 Jan 5.5 20:19:33 10° SSW 20:24:02 27° W 20:28:33 10° NW visible
18 Jan 4.6 18:20:47 10° ESE 18:25:02 25° ENE 18:29:20 10° NNE visible
18 Jan 4.8 20:00:01 10° SSW 20:05:01 40° W 20:10:05 10° NNW visible
19 Jan 7.1 06:42:31 10° ENE 06:43:30 10° E 06:44:30 10° E visible
19 Jan 5.0 18:03:00 10° ESE 18:06:22 17° ENE 18:09:46 10° NNE visible
19 Jan 4.0 19:40:48 10° S 19:46:05 61° W 19:51:24 10° NNW visible
20 Jan 5.3 17:45:59 10° E 17:47:46 12° ENE 17:49:32 10° NE visible
20 Jan 3.5 19:21:49 10° SSE 19:27:10 90° ENE 19:32:35 10° NNW visible
21 Jan 3.6 19:03:04 10° SSE 19:08:19 61° ENE 19:13:37 10° N visible
21 Jan 6.2 20:45:49 10° SW 20:48:57 16° W 20:52:08 10° NW visible
22 Jan 4.0 18:44:33 10° SE 18:49:32 41° ENE 18:54:32 10° N visible
22 Jan 5.7 20:25:38 10° SSW 20:29:53 24° W 20:34:08 10° NW visible
23 Jan 4.4 18:26:17 10° SE 18:30:47 28° ENE 18:35:18 10° N visible
23 Jan 5.1 20:06:00 10° SSW 20:10:51 35° W 20:15:46 10° NNW visible
24 Jan 6.9 06:47:10 10° ENE 06:49:23 12° E 06:51:36 10° ESE visible
24 Jan 4.9 18:08:21 10° ESE 18:12:05 20° ENE 18:15:50 10° NNE visible
24 Jan 4.3 19:46:40 10° S 19:51:53 53° W 19:57:09 10° NNW visible
25 Jan 5.2 17:50:57 10° E 17:53:27 13° ENE 17:55:57 10° NNE visible
25 Jan 3.7 19:27:36 10° S 19:32:58 80° WSW 19:38:22 10° NNW visible
